Location: Hains Lake
(37.8540°N, 99.8578°W)
Time: 02:03:45
(UTC+00:00)

Explorer 11/Cluster Stage 4 - All Passes

Search period start: 21 April 2021 00:00
Search period end: 01 May 2021 00:00
Orbit: 467 x 1257 km, 28.8° (Epoch: 20 April)

Date Brightness Start Highest point End Pass type
(mag) Time Alt. Az. Time Alt. Az. Time Alt. Az.
21 Apr - 13:17:02 10° SSW 13:19:46 19° SSE 13:22:47 10° ESE daylight
21 Apr - 15:03:54 10° WSW 15:07:29 26° S 15:11:43 10° ESE daylight
21 Apr - 16:51:48 10° WSW 16:55:28 21° SSW 16:59:43 10° SE daylight
22 Apr - 13:06:03 10° SW 13:08:47 19° SSE 13:11:46 10° ESE daylight
22 Apr - 14:53:08 10° WSW 14:56:31 24° S 15:00:25 10° SE daylight
22 Apr - 16:41:16 10° SW 16:44:26 17° SSW 16:48:03 10° SSE daylight
23 Apr - 12:55:07 10° SW 12:57:50 19° S 13:00:44 10° ESE daylight
23 Apr - 14:42:22 10° SW 14:45:32 22° S 14:49:08 10° SE daylight
23 Apr - 16:30:51 10° SW 16:33:25 15° SSW 16:36:15 10° SSE daylight
24 Apr - 12:44:10 10° SW 12:46:53 20° S 12:49:44 10° SE daylight
24 Apr - 14:31:39 10° SW 14:34:35 20° S 14:37:50 10° SE daylight
24 Apr - 16:20:45 10° SW 16:22:25 12° SSW 16:24:10 10° S daylight
25 Apr - 10:46:59 10° S 10:48:21 12° SSE 10:49:41 10° SE visible
25 Apr - 12:33:14 10° SW 12:35:56 20° S 12:38:45 10° SE daylight
25 Apr - 14:20:57 10° SW 14:23:37 18° S 14:26:31 10° SE daylight
26 Apr - 10:35:27 10° SSW 10:37:23 13° SSE 10:39:15 10° SE visible
26 Apr - 12:22:17 10° SW 12:25:00 20° S 12:27:46 10° SE daylight
26 Apr - 14:10:19 10° SW 14:12:40 16° S 14:15:10 10° SSE daylight
27 Apr - 10:24:03 10° SSW 10:26:25 15° S 10:28:40 10° SE visible
27 Apr - 12:11:20 10° SW 12:14:04 20° S 12:16:47 10° SE daylight
27 Apr - 13:59:44 10° SW 14:01:42 14° SSW 14:03:45 10° SSE daylight
28 Apr - 10:12:43 10° SW 10:15:27 17° S 10:18:01 10° SE visible
28 Apr - 12:00:23 10° SW 12:03:08 20° S 12:05:49 10° SE daylight
28 Apr - 13:49:18 10° SW 13:50:44 12° SSW 13:52:12 10° S daylight
29 Apr - 08:15:23 10° S 08:16:42 11° SSE 08:17:58 10° SSE night (unlit)
29 Apr - 10:01:25 10° SW 10:04:30 19° S 10:07:19 10° SE visible
29 Apr - 11:49:24 10° SW 11:52:11 19° S 11:54:51 10° SE daylight
29 Apr - 13:39:23 10° SSW 13:39:45 10° SSW 13:40:08 10° S daylight
30 Apr - 08:03:11 10° SSW 08:05:41 14° SSE 08:08:00 10° SE night (unlit)
30 Apr - 09:50:07 10° SW 09:53:33 22° S 09:56:35 10° SE visible
30 Apr - 11:38:26 10° SW 11:41:14 19° S 11:43:53 10° SE daylight
